KANOPUS-V 3

导读

KANOPUS-V 3是由独联体(CIS)发射的遥感卫星,于2018年2月1日8时成功进入预定轨道。该卫星属于KANOPUS-V系列,主要承担地球观测任务,可获取高分辨率地表影像,服务于自然资源监测、灾害预警评估、环境变化研究等领域,助力区域生态管理与地理信息更新,延续了该系列卫星的观测效能,为航天遥感应用持续提供数据支撑。

Basic Information
目录编号:
43180
目录名称:
KANOPUS-V 3
国际标识:
2018-014A
轨道中心:
EARTH
卫星名称:
KANOPUS-V 3
卫星全名:
--
卫星状态:
在轨 (已飞行3145 天)
发射日期:
2018-02-01 UTC
国别 :
俄罗斯(独联体) (CIS)
星等 :
--
This satellite is enrolled in the Space Conjunction Data Service (SCDS) and the current flight risk assessment level is: No High Risk
Orbit Information
数据来源 国际轨道数据
星历时间: 2026-09-12T06:52:11+0800
8小时前
查看轨道信息
半长轴: 6876.507km
偏心率: 0.000192
轨道倾角: 97.348°
近地点辐角 87.135°
升交点赤经 158.637°
平近点角 273.010°
近地点: 497.049km
远地点: 499.691km
周期: 94.583分钟
每日圈数: 15.224778
Detailed Information
使用方式:
暂无
2D Orbit Map
3D Orbit Map
Orbit Altitude Analysis Chart
Orbit Inclination Analysis Chart
Orbit Comprehensive Analysis Chart
View Comprehensive Chart
Conjunction Data List
Event ID Objects TCA Miss Dist (km) Collision Risk Probability Collision Risk Index (CRI) Action
CDM_260913-105704-001404-318025
BUGSAT 1 (40014)
2026-09-13T
10:57:44+0000
0.545 km
远距离
1.688714E-4 高风险 0.8
CDM_260913-134004-318006-672824
2026-09-13T
13:40:42+0000
1.964 km
极远距离
3.025972E-6 低风险 0.45
CDM_260913-040504-096804-318027
BISONSAT (40968)
2026-09-13T
04:05:36+0000
2.593 km
极远距离
1.666323E-6 低风险 0.39
Miss Distance Evolution Trend with All Objects
Collision Probability Evolution Trend with All Objects